This demonstration page uses our WeatherBlox Daily Observations layout. Learn more.

Left ArrowRight Arrow

Hourly Observations for February 3, 2017

Temp ( °F °C ) Dew Point ( °F °C ) Humidity (%) Winds ( mph kmh ) Pressure ( in mb ) Visibility ( mi km ) Precip ( " mm )
12:53 am 00:53 Clear 24 -4.4 14 -10 65 65 NW 5 7 30.37 1029 10 16 N/A
1:53 am 01:53 Clear 23 -5 14 -10 68 68 WNW 6 9 30.37 1029 10 16 N/A
2:53 am 02:53 Clear 24 -4.4 15 -9.4 68 68 NW 5 7 30.37 1028 10 16 N/A
3:53 am 03:53 Clear 24 -4.4 16 -8.9 71 71 NW 7 11 30.38 1029 10 16 N/A
4:53 am 04:53 Mostly Cloudy 24 -4.4 15 -9.4 68 68 NW 7 11 30.38 1029 10 16 N/A
5:53 am 05:53 Cloudy 23 -5 13 -10.6 65 65 NNW 5 7 30.40 1029 10 16 N/A
6:53 am 06:53 Partly Cloudy 23 -5 12 -11.1 63 63 NW 8 13 30.40 1030 10 16 N/A
7:53 am 07:53 Cloudy 23 -5 12 -11.1 63 63 NW 5 7 30.41 1030 10 16 N/A
8:53 am 08:53 Mostly Cloudy 24 -4.4 12 -11.1 60 60 WNW 9 15 30.42 1030 10 16 N/A
9:53 am 09:53 Mostly Cloudy 25 -3.9 12 -11.1 58 58 WNW 9 15 30.44 1031 10 16 N/A
10:53 am 10:53 Cloudy 27 -2.8 12 -11.1 53 53 NW 10 17 30.45 1031 10 16 N/A
11:53 am 11:53 Cloudy 27 -2.8 13 -10.6 55 55 NW 10 17 30.45 1031 10 16 N/A
12:53 pm 12:53 Cloudy 27 -2.8 10 -12.2 49 49 WNW 14 22 30.45 1031 10 16 N/A
1:53 pm 13:53 Cloudy 27 -2.8 11 -11.7 51 51 WNW 12 19 30.45 1031 10 16 N/A
2:53 pm 14:53 Mostly Sunny 28 -2.2 10 -12.2 47 47 NW 13 20 30.45 1031 10 16 N/A
3:53 pm 15:53 Sunny 29 -1.7 9 -12.8 43 43 NW 10 17 30.45 1031 10 16 N/A
4:53 pm 16:53 Sunny 29 -1.7 9 -12.8 43 43 NW 15 24 30.47 1032 10 16 N/A
5:53 pm 17:53 Sunny 27 -2.8 8 -13.3 45 45 WNW 10 17 30.49 1033 10 16 N/A
6:53 pm 18:53 Clear 25 -3.9 9 -12.8 50 50 WNW 6 9 30.52 1034 10 16 N/A
7:53 pm 19:53 Clear 21 -6.1 9 -12.8 59 59 WNW 6 9 30.54 1034 10 16 N/A
8:53 pm 20:53 Clear 16 -8.9 9 -12.8 74 74 N N/A 30.55 1034 10 16 N/A
9:53 pm 21:53 Clear 14 -10 9 -12.8 80 80 N N/A 30.54 1034 10 16 N/A
10:53 pm 22:53 Clear 12 -11.1 9 -12.8 87 87 N N/A 30.55 1034 10 16 N/A
11:53 pm 23:53 Clear 12 -11.1 8 -13.3 84 84 N N/A 30.55 1035 10 16 N/A

Powered by AerisWeather